GW4954 Weather Reports


time (UTC)temp
F
wind
direction
speed
knots
gust
knots
rain 1hr
in
rain 24hr
in
rain mn
in
humidity
%
barometer
mb
20260504070408 47 12 0.0 1.7 0.00 0.00 0.00 67 1007.3
20260504050253 47 26 0.0 2.6 0.00 0.00 0.00 55 1007.6
20260504045745 47 1 0.0 0.0 0.00 0.00 0.00 55 1007.8
20260504045244 47 14 0.0 0.9 0.00 0.00 0.00 55 1007.8
20260504044742 46 17 0.0 1.7 0.00 0.00 0.00 55 1007.8
20260504044240 46 20 0.0 0.9 0.00 0.00 0.00 55 1008.0
20260504043737 46 12 0.0 0.9 0.00 0.00 0.00 54 1008.0
20260504043233 46 33 0.0 0.9 0.00 0.00 0.00 54 1008.1
20260504042731 46 23 0.0 0.0 0.00 0.00 0.00 53 1008.1
20260504042227 46 15 0.0 0.9 0.00 0.00 0.00 53 1008.1
20260504041724 46 23 0.0 0.9 0.00 0.00 0.00 52 1008.0
20260504041220 46 29 0.0 0.9 0.00 0.00 0.00 51 1008.0
20260504040716 47 44 0.9 1.7 0.00 0.00 0.00 51 1007.9
20260504040213 47 31 0.0 0.9 0.00 0.00 0.00 50 1008.0
20260504035709 47 26 0.0 3.5 0.00 0.00 0.00 50 1008.0
20260504035207 47 30 0.0 1.7 0.00 0.00 0.00 49 1007.9
20260504034704 47 48 0.9 1.7 0.00 0.00 0.00 49 1008.0
20260504034201 47 29 0.9 1.7 0.00 0.00 0.00 49 1008.1
20260504033659 48 23 0.0 0.9 0.00 0.00 0.00 49 1008.0
20260504033156 48 31 0.9 1.7 0.00 0.00 0.00 49 1008.0
20260504032653 48 22 0.0 1.7 0.00 0.00 0.00 49 1008.0
20260504032150 48 21 0.0 0.9 0.00 0.00 0.00 50 1008.1
20260504031647 48 33 0.9 1.7 0.00 0.00 0.00 50 1008.1
20260504031143 48 17 0.0 0.9 0.00 0.00 0.00 49 1008.2
20260504030640 49 18 0.0 2.6 0.00 0.00 0.00 48 1008.2
20260504030137 48 4 1.7 2.6 0.00 0.00 0.00 48 1008.3
20260504025634 49 24 0.0 0.9 0.00 0.00 0.00 48 1008.2
20260504025130 49 14 0.0 1.7 0.00 0.00 0.00 48 1008.3
20260504024628 49 28 0.9 1.7 0.00 0.00 0.00 48 1008.2
20260504024124 49 16 0.0 1.7 0.00 0.00 0.00 48 1008.4
20260504023621 49 10 0.0 0.9 0.00 0.00 0.00 47 1008.2
20260504023117 49 13 0.9 0.9 0.00 0.00 0.00 47 1008.5
20260504022613 49 23 0.0 1.7 0.00 0.00 0.00 47 1008.6
20260504022109 49 18 0.0 0.9 0.00 0.00 0.00 47 1008.6
20260504021608 49 17 0.0 1.7 0.00 0.00 0.00 47 1008.6
20260504021104 50 25 0.9 0.9 0.00 0.00 0.00 45 1008.6
20260504020601 50 23 1.7 2.6 0.00 0.00 0.00 45 1008.7
20260504020057 50 8 0.9 3.5 0.00 0.00 0.00 44 1008.6
20260504015554 50 23 0.0 0.9 0.00 0.00 0.00 44 1008.7
20260504015049 50 4 0.9 2.6 0.00 0.00 0.00 44 1008.8
20260504014546 50 34 0.0 2.6 0.00 0.00 0.00 44 1008.8
20260504014043 51 20 0.0 0.9 0.00 0.00 0.00 43 1008.8
20260504013541 51 10 0.0 1.7 0.00 0.00 0.00 43 1008.8
20260504013038 51 351 0.9 0.9 0.00 0.00 0.00 43 1008.7
20260504012535 51 18 0.0 1.7 0.00 0.00 0.00 42 1008.8
20260504012033 51 39 0.0 1.7 0.00 0.00 0.00 42 1008.6
20260504011529 51 78 1.7 5.2 0.00 0.00 0.00 41 1008.7
20260504011026 51 24 0.9 2.6 0.00 0.00 0.00 41 1008.7
20260504010521 51 79 0.9 1.7 0.00 0.00 0.00 42 1008.7
20260504010017 51 17 0.0 0.9 0.00 0.00 0.00 41 1008.7
20260504005514 52 20 0.0 0.0 0.00 0.00 0.00 41 1008.6
20260504005012 52 23 0.0 1.7 0.00 0.00 0.00 41 1008.6
20260504004509 52 22 0.0 1.7 0.00 0.00 0.00 40 1008.6
20260504004006 52 14 0.9 2.6 0.00 0.00 0.00 40 1008.4
20260504003502 52 15 0.0 0.9 0.00 0.00 0.00 40 1008.4
20260504002959 52 24 1.7 2.6 0.00 0.00 0.00 39 1008.4
20260504002456 52 14 0.0 3.5 0.00 0.00 0.00 39 1008.5
20260504001953 52 6 0.0 2.6 0.00 0.00 0.00 38 1008.3
20260504001451 52 168 2.6 5.2 0.00 0.00 0.00 38 1008.3
20260504000947 53 145 1.7 3.5 0.00 0.00 0.00 37 1008.3
20260504000444 53 44 1.7 2.6 0.00 0.00 0.00 35 1008.3
20260503235942 53 188 1.7 3.5 0.00 0.00 0.00 34 1008.2
20260503235439 53 27 0.9 5.2 0.00 0.00 0.00 33 1008.2
20260503234936 53 110 1.7 2.6 0.00 0.00 0.00 33 1008.2
20260503234434 53 35 0.0 1.7 0.00 0.00 0.00 34 1008.2
20260503233932 53 20 0.0 0.9 0.00 0.00 0.00 33 1008.2
20260503233428 54 14 0.0 1.7 0.00 0.00 0.00 33 1008.1
20260503232925 54 43 0.0 3.5 0.00 0.00 0.00 32 1008.2
20260503232422 54 35 2.6 3.5 0.00 0.00 0.00 32 1008.3
20260503231920 54 150 1.7 5.2 0.00 0.00 0.00 32 1008.3
20260503231417 54 62 0.9 2.6 0.00 0.00 0.00 32 1008.3
20260503230913 54 350 3.5 9.6 0.00 0.00 0.00 32 1008.1
20260503230409 54 22 0.9 3.5 0.00 0.00 0.00 32 1008.4
20260503225908 55 46 0.0 0.9 0.00 0.00 0.00 32 1008.4
20260503225403 55 99 0.9 1.7 0.00 0.00 0.00 32 1008.3
20260503224859 55 126 1.7 1.7 0.00 0.00 0.00 31 1008.2
20260503224357 56 30 0.9 0.9 0.00 0.00 0.00 30 1008.4
20260503223854 56 14 0.9 2.6 0.00 0.00 0.00 30 1008.1
20260503223352 56 21 0.0 6.1 0.00 0.00 0.00 31 1008.3
20260503222847 56 326 1.7 2.6 0.00 0.00 0.00 30 1008.3
20260503222346 56 18 0.9 0.9 0.00 0.00 0.00 30 1008.1
20260503221844 56 166 0.9 0.9 0.00 0.00 0.00 30 1008.3
20260503221342 56 7 0.9 3.5 0.00 0.00 0.00 30 1008.2
20260503220838 56 153 3.5 8.7 0.00 0.00 0.00 30 1008.1
20260503220335 56 7 0.0 1.7 0.00 0.00 0.00 30 1008.1
20260503215832 57 32 0.9 0.9 0.00 0.00 0.00 30 1008.3
20260503215329 56 54 1.7 3.5 0.00 0.00 0.00 29 1008.3
20260503214827 56 20 0.0 1.7 0.00 0.00 0.00 30 1008.1
20260503214324 56 258 0.9 5.2 0.00 0.00 0.00 31 1008.3
20260503213821 56 7 0.9 1.7 0.00 0.00 0.00 32 1008.3
20260503213319 56 29 0.0 3.5 0.00 0.00 0.00 31 1008.0
20260503212815 56 69 1.7 2.6 0.00 0.00 0.00 31 1008.2
20260503212308 55 358 0.9 3.5 0.00 0.00 0.00 33 1008.2
20260503211805 55 36 0.9 5.2 0.00 0.00 0.00 33 1008.3
20260503211302 55 30 0.9 2.6 0.00 0.00 0.00 33 1008.2
20260503210802 54 46 0.0 1.7 0.00 0.00 0.00 33 1008.3
20260503210259 54 338 0.9 2.6 0.00 0.00 0.00 34 1008.2
20260503205754 54 30 1.7 2.6 0.00 0.00 0.00 34 1008.3
20260503205251 55 0 0.9 0.9 0.00 0.00 0.00 33 1008.4
20260503204748 54 51 3.5 5.2 0.00 0.00 0.00 33 1008.3
20260503204245 55 25 0.9 3.5 0.00 0.00 0.00 32 1008.5
20260503203742 55 33 1.7 5.2 0.00 0.00 0.00 32 1008.5
20260503203240 54 175 0.9 1.7 0.00 0.00 0.00 33 1008.3
20260503202737 54 55 0.9 3.5 0.00 0.00 0.00 33 1008.3
20260503202235 54 39 1.7 2.6 0.00 0.00 0.00 34 1008.5
20260503201732 54 15 0.9 1.7 0.00 0.00 0.00 33 1008.6
20260503201229 54 49 1.7 6.1 0.00 0.00 0.00 34 1008.6
20260503200726 54 15 3.5 7.0 0.00 0.00 0.00 35 1008.7
20260503200222 55 0 2.6 5.2 0.00 0.00 0.00 34 1008.7
20260503195719 55 32 0.9 3.5 0.00 0.00 0.00 33 1008.9
20260503195216 54 107 1.7 5.2 0.00 0.00 0.00 34 1008.8
20260503194713 54 59 0.9 2.6 0.00 0.00 0.00 35 1008.9
20260503194209 55 57 0.9 1.7 0.00 0.00 0.00 34 1008.9
20260503193705 55 19 0.9 2.6 0.00 0.00 0.00 34 1009.0
20260503193201 57 61 0.9 2.6 0.00 0.00 0.00 32 1008.9
20260503192657 55 29 0.9 1.7 0.00 0.00 0.00 34 1009.3
20260503192152 55 76 0.9 2.6 0.00 0.00 0.00 34 1009.2
20260503191650 54 185 0.9 7.0 0.00 0.00 0.00 35 1009.2
20260503191147 56 340 1.7 2.6 0.00 0.00 0.00 33 1009.1
20260503190643 55 31 0.0 1.7 0.00 0.00 0.00 33 1009.4
20260503190140 53 302 0.9 7.0 0.00 0.00 0.00 35 1009.4
20260503185636 52 41 1.7 2.6 0.00 0.00 0.00 36 1009.3
20260503185131 53 61 0.9 1.7 0.00 0.00 0.00 36 1009.5
20260503184627 53 30 0.9 6.1 0.00 0.00 0.00 36 1009.5
20260503184124 52 348 1.7 2.6 0.00 0.00 0.00 37 1009.6
20260503183620 52 331 3.5 7.0 0.00 0.00 0.00 37 1009.7
20260503183118 53 21 0.9 0.9 0.00 0.00 0.00 38 1009.9
20260503182616 54 115 1.7 5.2 0.00 0.00 0.00 36 1009.8
20260503182114 54 31 1.7 1.7 0.00 0.00 0.00 36 1009.8
20260503181611 54 337 0.9 0.9 0.00 0.00 0.00 36 1009.9
20260503181107 53 344 0.9 0.9 0.00 0.00 0.00 38 1010.0
20260503180604 52 11 0.0 0.9 0.00 0.00 0.00 39 1010.0
20260503175559 54 21 0.0 1.7 0.00 0.00 0.00 38 1010.3
20260503175056 52 63 2.6 3.5 0.00 0.00 0.00 40 1010.1
20260503174553 52 63 2.6 3.5 0.00 0.00 0.00 40 1010.0
20260503174050 50 126 3.5 6.1 0.00 0.00 0.00 42 1010.2
20260503173544 51 35 0.9 0.9 0.00 0.00 0.00 41 1010.4
20260503173041 51 146 1.7 2.6 0.00 0.00 0.00 42 1010.5
20260503172538 50 87 1.7 1.7 0.00 0.00 0.00 43 1010.4
20260503172035 52 23 1.7 2.6 0.00 0.00 0.00 42 1010.3
20260503171532 52 30 1.7 1.7 0.00 0.00 0.00 42 1010.5
20260503171029 51 34 0.9 2.6 0.00 0.00 0.00 42 1010.6
20260503170525 52 19 0.9 2.6 0.00 0.00 0.00 42 1010.6
20260503150918 49 358 2.6 3.5 0.00 0.00 0.00 43 1012.2
20260503150414 49 11 0.9 3.5 0.00 0.00 0.00 45 1012.2
20260503131308 45 22 0.0 0.9 0.00 0.00 0.00 54 1013.3
20260503130805 45 13 0.0 0.0 0.00 0.00 0.00 55 1013.1
20260503130302 45 8 0.0 0.9 0.00 0.00 0.00 55 1013.2
20260503110656 39 12 0.0 0.0 0.00 0.00 0.00 78 1013.1
20260503110153 39 12 0.0 0.0 0.00 0.00 0.00 78 1013.0
20260503100120 0 0.0 0.0 0.00 0.00 0.00 1012.8
20260503081509 0 0.0 0.0 0.00 0.00 0.00 1012.9
20260503081006 0 0.0 0.0 0.00 0.00 0.00 1013.0
20260503080502 0 0.0 0.0 0.00 0.00 0.00 1012.9
20260503072939 0 0.0 0.0 0.00 0.00 0.00 1013.1